Zurück zum Katalog

ATLAS 5 CENTAUR DEB

AktivHEO
NORAD 44650·DEBRIS·🇺🇸 United States

Gestartet Oct 17, 2018 von Cape Canaveral Space Force Station

Loading…

Nächste Überflüge (nächste 24 Stunden)

TLE

AktuellSource: Space-Track

Epoche: Sep 13, 2026, 08:55 UTC

1 44650U 18079L   26256.37206602 -.00000164  00000-0  00000-0 0  9993
2 44650  13.1828  23.1113 4444402 348.7054   3.8245  1.90420741 51835

Verfolge ATLAS 5 CENTAUR DEB in Echtzeit mit AllMySat

Download on the App Store